Index of /20260430/WXO-DD/model_gdps/15km/12/144
Name Last modified Size Description
Parent Directory -
20260430T12Z_MSC_GDPS_AbsoluteVorticity_IsbL-0200_LatLon0.15_PT144H.grib2 2026-04-30 16:25 1.2M
20260430T12Z_MSC_GDPS_AbsoluteVorticity_IsbL-0250_LatLon0.15_PT144H.grib2 2026-04-30 16:25 1.3M
20260430T12Z_MSC_GDPS_AbsoluteVorticity_IsbL-0500_LatLon0.15_PT144H.grib2 2026-04-30 16:25 1.5M
20260430T12Z_MSC_GDPS_AbsoluteVorticity_IsbL-0700_LatLon0.15_PT144H.grib2 2026-04-30 16:25 1.6M
20260430T12Z_MSC_GDPS_AbsoluteVorticity_IsbL-0850_LatLon0.15_PT144H.grib2 2026-04-30 16:25 1.6M
20260430T12Z_MSC_GDPS_AirTemp-Max_AGL-2m_LatLon0.15_PT144H.grib2 2026-04-30 16:25 740K
20260430T12Z_MSC_GDPS_AirTemp-Min_AGL-2m_LatLon0.15_PT144H.grib2 2026-04-30 16:25 786K
20260430T12Z_MSC_GDPS_AirTemp_AGL-120m_LatLon0.15_PT144H.grib2 2026-04-30 16:25 905K
20260430T12Z_MSC_GDPS_AirTemp_AGL-2m_LatLon0.15_PT144H.grib2 2026-04-30 16:25 1.0M
20260430T12Z_MSC_GDPS_AirTemp_AGL-40m_LatLon0.15_PT144H.grib2 2026-04-30 16:25 925K
20260430T12Z_MSC_GDPS_AirTemp_AGL-80m_LatLon0.15_PT144H.grib2 2026-04-30 16:25 914K
20260430T12Z_MSC_GDPS_AirTemp_IsbL-0001_LatLon0.15_PT144H.grib2 2026-04-30 16:25 655K
20260430T12Z_MSC_GDPS_AirTemp_IsbL-0005_LatLon0.15_PT144H.grib2 2026-04-30 16:25 689K
20260430T12Z_MSC_GDPS_AirTemp_IsbL-0010_LatLon0.15_PT144H.grib2 2026-04-30 16:25 697K
20260430T12Z_MSC_GDPS_AirTemp_IsbL-0020_LatLon0.15_PT144H.grib2 2026-04-30 16:25 790K
20260430T12Z_MSC_GDPS_AirTemp_IsbL-0030_LatLon0.15_PT144H.grib2 2026-04-30 16:25 757K
20260430T12Z_MSC_GDPS_AirTemp_IsbL-0050_LatLon0.15_PT144H.grib2 2026-04-30 16:25 806K
20260430T12Z_MSC_GDPS_AirTemp_IsbL-0100_LatLon0.15_PT144H.grib2 2026-04-30 16:25 967K
20260430T12Z_MSC_GDPS_AirTemp_IsbL-0150_LatLon0.15_PT144H.grib2 2026-04-30 16:25 1.0M
20260430T12Z_MSC_GDPS_AirTemp_IsbL-0175_LatLon0.15_PT144H.grib2 2026-04-30 16:25 961K
20260430T12Z_MSC_GDPS_AirTemp_IsbL-0200_LatLon0.15_PT144H.grib2 2026-04-30 16:25 1.0M
20260430T12Z_MSC_GDPS_AirTemp_IsbL-0225_LatLon0.15_PT144H.grib2 2026-04-30 16:25 1.0M
20260430T12Z_MSC_GDPS_AirTemp_IsbL-0250_LatLon0.15_PT144H.grib2 2026-04-30 16:25 1.0M
20260430T12Z_MSC_GDPS_AirTemp_IsbL-0275_LatLon0.15_PT144H.grib2 2026-04-30 16:25 1.0M
20260430T12Z_MSC_GDPS_AirTemp_IsbL-0300_LatLon0.15_PT144H.grib2 2026-04-30 16:25 1.0M
20260430T12Z_MSC_GDPS_AirTemp_IsbL-0350_LatLon0.15_PT144H.grib2 2026-04-30 16:25 928K
20260430T12Z_MSC_GDPS_AirTemp_IsbL-0400_LatLon0.15_PT144H.grib2 2026-04-30 16:25 943K
20260430T12Z_MSC_GDPS_AirTemp_IsbL-0450_LatLon0.15_PT144H.grib2 2026-04-30 16:25 968K
20260430T12Z_MSC_GDPS_AirTemp_IsbL-0500_LatLon0.15_PT144H.grib2 2026-04-30 16:25 1.0M
20260430T12Z_MSC_GDPS_AirTemp_IsbL-0550_LatLon0.15_PT144H.grib2 2026-04-30 16:25 1.0M
20260430T12Z_MSC_GDPS_AirTemp_IsbL-0600_LatLon0.15_PT144H.grib2 2026-04-30 16:25 894K
20260430T12Z_MSC_GDPS_AirTemp_IsbL-0650_LatLon0.15_PT144H.grib2 2026-04-30 16:25 927K
20260430T12Z_MSC_GDPS_AirTemp_IsbL-0700_LatLon0.15_PT144H.grib2 2026-04-30 16:25 962K
20260430T12Z_MSC_GDPS_AirTemp_IsbL-0750_LatLon0.15_PT144H.grib2 2026-04-30 16:25 1.0M
20260430T12Z_MSC_GDPS_AirTemp_IsbL-0800_LatLon0.15_PT144H.grib2 2026-04-30 16:25 1.1M
20260430T12Z_MSC_GDPS_AirTemp_IsbL-0850_LatLon0.15_PT144H.grib2 2026-04-30 16:25 1.1M
20260430T12Z_MSC_GDPS_AirTemp_IsbL-0875_LatLon0.15_PT144H.grib2 2026-04-30 16:25 1.2M
20260430T12Z_MSC_GDPS_AirTemp_IsbL-0900_LatLon0.15_PT144H.grib2 2026-04-30 16:25 1.2M
20260430T12Z_MSC_GDPS_AirTemp_IsbL-0925_LatLon0.15_PT144H.grib2 2026-04-30 16:25 1.1M
20260430T12Z_MSC_GDPS_AirTemp_IsbL-0950_LatLon0.15_PT144H.grib2 2026-04-30 16:25 1.1M
20260430T12Z_MSC_GDPS_AirTemp_IsbL-0970_LatLon0.15_PT144H.grib2 2026-04-30 16:25 1.1M
20260430T12Z_MSC_GDPS_AirTemp_IsbL-0985_LatLon0.15_PT144H.grib2 2026-04-30 16:25 1.1M
20260430T12Z_MSC_GDPS_AirTemp_IsbL-1000_LatLon0.15_PT144H.grib2 2026-04-30 16:25 903K
20260430T12Z_MSC_GDPS_AirTemp_IsbL-1015_LatLon0.15_PT144H.grib2 2026-04-30 16:25 865K
20260430T12Z_MSC_GDPS_Albedo_Sfc_LatLon0.15_PT144H.grib2 2026-04-30 16:25 240K
20260430T12Z_MSC_GDPS_CAPE_Sfc_LatLon0.15_PT144H.grib2 2026-04-30 16:25 4.0M
20260430T12Z_MSC_GDPS_CIN_Sfc_LatLon0.15_PT144H.grib2 2026-04-30 16:25 2.9M
20260430T12Z_MSC_GDPS_CloudWater_EAtm_LatLon0.15_PT144H.grib2 2026-04-30 16:25 538K
20260430T12Z_MSC_GDPS_ConvectivePrecip-Accum_Sfc_LatLon0.15_PT144H.grib2 2026-04-30 16:25 3.7M
20260430T12Z_MSC_GDPS_DewPointDepression_AGL-2m_LatLon0.15_PT144H.grib2 2026-04-30 16:25 760K
20260430T12Z_MSC_GDPS_DewPointDepression_IsbL-0010_LatLon0.15_PT144H.grib2 2026-04-30 16:25 73K
20260430T12Z_MSC_GDPS_DewPointDepression_IsbL-0020_LatLon0.15_PT144H.grib2 2026-04-30 16:25 70K
20260430T12Z_MSC_GDPS_DewPointDepression_IsbL-0030_LatLon0.15_PT144H.grib2 2026-04-30 16:25 88K
20260430T12Z_MSC_GDPS_DewPointDepression_IsbL-0050_LatLon0.15_PT144H.grib2 2026-04-30 16:25 379K
20260430T12Z_MSC_GDPS_DewPointDepression_IsbL-0100_LatLon0.15_PT144H.grib2 2026-04-30 16:25 396K
20260430T12Z_MSC_GDPS_DewPointDepression_IsbL-0150_LatLon0.15_PT144H.grib2 2026-04-30 16:25 482K
20260430T12Z_MSC_GDPS_DewPointDepression_IsbL-0175_LatLon0.15_PT144H.grib2 2026-04-30 16:25 590K
20260430T12Z_MSC_GDPS_DewPointDepression_IsbL-0200_LatLon0.15_PT144H.grib2 2026-04-30 16:25 697K
20260430T12Z_MSC_GDPS_DewPointDepression_IsbL-0225_LatLon0.15_PT144H.grib2 2026-04-30 16:25 772K
20260430T12Z_MSC_GDPS_DewPointDepression_IsbL-0250_LatLon0.15_PT144H.grib2 2026-04-30 16:25 864K
20260430T12Z_MSC_GDPS_DewPointDepression_IsbL-0275_LatLon0.15_PT144H.grib2 2026-04-30 16:25 884K
20260430T12Z_MSC_GDPS_DewPointDepression_IsbL-0300_LatLon0.15_PT144H.grib2 2026-04-30 16:25 929K
20260430T12Z_MSC_GDPS_DewPointDepression_IsbL-0350_LatLon0.15_PT144H.grib2 2026-04-30 16:25 964K
20260430T12Z_MSC_GDPS_DewPointDepression_IsbL-0400_LatLon0.15_PT144H.grib2 2026-04-30 16:25 1.0M
20260430T12Z_MSC_GDPS_DewPointDepression_IsbL-0450_LatLon0.15_PT144H.grib2 2026-04-30 16:25 1.0M
20260430T12Z_MSC_GDPS_DewPointDepression_IsbL-0500_LatLon0.15_PT144H.grib2 2026-04-30 16:25 1.0M
20260430T12Z_MSC_GDPS_DewPointDepression_IsbL-0550_LatLon0.15_PT144H.grib2 2026-04-30 16:25 1.0M
20260430T12Z_MSC_GDPS_DewPointDepression_IsbL-0600_LatLon0.15_PT144H.grib2 2026-04-30 16:25 1.0M
20260430T12Z_MSC_GDPS_DewPointDepression_IsbL-0650_LatLon0.15_PT144H.grib2 2026-04-30 16:25 1.1M
20260430T12Z_MSC_GDPS_DewPointDepression_IsbL-0700_LatLon0.15_PT144H.grib2 2026-04-30 16:25 1.1M
20260430T12Z_MSC_GDPS_DewPointDepression_IsbL-0750_LatLon0.15_PT144H.grib2 2026-04-30 16:25 1.1M
20260430T12Z_MSC_GDPS_DewPointDepression_IsbL-0800_LatLon0.15_PT144H.grib2 2026-04-30 16:25 1.2M
20260430T12Z_MSC_GDPS_DewPointDepression_IsbL-0850_LatLon0.15_PT144H.grib2 2026-04-30 16:25 1.2M
20260430T12Z_MSC_GDPS_DewPointDepression_IsbL-0875_LatLon0.15_PT144H.grib2 2026-04-30 16:25 1.1M
20260430T12Z_MSC_GDPS_DewPointDepression_IsbL-0900_LatLon0.15_PT144H.grib2 2026-04-30 16:25 1.1M
20260430T12Z_MSC_GDPS_DewPointDepression_IsbL-0925_LatLon0.15_PT144H.grib2 2026-04-30 16:25 1.0M
20260430T12Z_MSC_GDPS_DewPointDepression_IsbL-0950_LatLon0.15_PT144H.grib2 2026-04-30 16:25 1.0M
20260430T12Z_MSC_GDPS_DewPointDepression_IsbL-0970_LatLon0.15_PT144H.grib2 2026-04-30 16:25 1.0M
20260430T12Z_MSC_GDPS_DewPointDepression_IsbL-0985_LatLon0.15_PT144H.grib2 2026-04-30 16:25 1.0M
20260430T12Z_MSC_GDPS_DewPointDepression_IsbL-1000_LatLon0.15_PT144H.grib2 2026-04-30 16:25 971K
20260430T12Z_MSC_GDPS_DewPointDepression_IsbL-1015_LatLon0.15_PT144H.grib2 2026-04-30 16:25 916K
20260430T12Z_MSC_GDPS_DewPoint_AGL-2m_LatLon0.15_PT144H.grib2 2026-04-30 16:25 611K
20260430T12Z_MSC_GDPS_DownwardLongwaveRadiationFlux-Accum_Sfc_LatLon0.15_PT144H.grib2 2026-04-30 16:25 841K
20260430T12Z_MSC_GDPS_DownwardShortwaveRadiationFlux-Accum_NTAtm_LatLon0.15_PT144H.grib2 2026-04-30 16:25 152K
20260430T12Z_MSC_GDPS_DownwardShortwaveRadiationFlux-Accum_Sfc_LatLon0.15_PT144H.grib2 2026-04-30 16:25 1.0M
20260430T12Z_MSC_GDPS_FreezingRain-Accum12h_Sfc_LatLon0.15_PT144H.grib2 2026-04-30 16:25 98K
20260430T12Z_MSC_GDPS_FreezingRain-Accum1h_Sfc_LatLon0.15_PT144H.grib2 2026-04-30 16:25 46K
20260430T12Z_MSC_GDPS_FreezingRain-Accum24h_Sfc_LatLon0.15_PT144H.grib2 2026-04-30 16:25 169K
20260430T12Z_MSC_GDPS_FreezingRain-Accum3h_Sfc_LatLon0.15_PT144H.grib2 2026-04-30 16:25 54K
20260430T12Z_MSC_GDPS_FreezingRain-Accum6h_Sfc_LatLon0.15_PT144H.grib2 2026-04-30 16:25 74K
20260430T12Z_MSC_GDPS_FreezingRain-Accum_Sfc_LatLon0.15_PT144H.grib2 2026-04-30 16:25 455K
20260430T12Z_MSC_GDPS_GeopotentialHeight_IsbL-0001_LatLon0.15_PT144H.grib2 2026-04-30 16:25 426K
20260430T12Z_MSC_GDPS_GeopotentialHeight_IsbL-0005_LatLon0.15_PT144H.grib2 2026-04-30 16:25 483K
20260430T12Z_MSC_GDPS_GeopotentialHeight_IsbL-0010_LatLon0.15_PT144H.grib2 2026-04-30 16:25 474K
20260430T12Z_MSC_GDPS_GeopotentialHeight_IsbL-0020_LatLon0.15_PT144H.grib2 2026-04-30 16:25 417K
20260430T12Z_MSC_GDPS_GeopotentialHeight_IsbL-0030_LatLon0.15_PT144H.grib2 2026-04-30 16:25 573K
20260430T12Z_MSC_GDPS_GeopotentialHeight_IsbL-0050_LatLon0.15_PT144H.grib2 2026-04-30 16:25 570K
20260430T12Z_MSC_GDPS_GeopotentialHeight_IsbL-0100_LatLon0.15_PT144H.grib2 2026-04-30 16:25 612K
20260430T12Z_MSC_GDPS_GeopotentialHeight_IsbL-0150_LatLon0.15_PT144H.grib2 2026-04-30 16:25 631K
20260430T12Z_MSC_GDPS_GeopotentialHeight_IsbL-0175_LatLon0.15_PT144H.grib2 2026-04-30 16:25 634K
20260430T12Z_MSC_GDPS_GeopotentialHeight_IsbL-0200_LatLon0.15_PT144H.grib2 2026-04-30 16:25 641K
20260430T12Z_MSC_GDPS_GeopotentialHeight_IsbL-0225_LatLon0.15_PT144H.grib2 2026-04-30 16:25 644K
20260430T12Z_MSC_GDPS_GeopotentialHeight_IsbL-0250_LatLon0.15_PT144H.grib2 2026-04-30 16:25 643K
20260430T12Z_MSC_GDPS_GeopotentialHeight_IsbL-0275_LatLon0.15_PT144H.grib2 2026-04-30 16:25 645K
20260430T12Z_MSC_GDPS_GeopotentialHeight_IsbL-0300_LatLon0.15_PT144H.grib2 2026-04-30 16:25 637K
20260430T12Z_MSC_GDPS_GeopotentialHeight_IsbL-0350_LatLon0.15_PT144H.grib2 2026-04-30 16:25 632K
20260430T12Z_MSC_GDPS_GeopotentialHeight_IsbL-0400_LatLon0.15_PT144H.grib2 2026-04-30 16:25 623K
20260430T12Z_MSC_GDPS_GeopotentialHeight_IsbL-0450_LatLon0.15_PT144H.grib2 2026-04-30 16:25 613K
20260430T12Z_MSC_GDPS_GeopotentialHeight_IsbL-0500_LatLon0.15_PT144H.grib2 2026-04-30 16:25 536K
20260430T12Z_MSC_GDPS_GeopotentialHeight_IsbL-0550_LatLon0.15_PT144H.grib2 2026-04-30 16:25 529K
20260430T12Z_MSC_GDPS_GeopotentialHeight_IsbL-0600_LatLon0.15_PT144H.grib2 2026-04-30 16:25 691K
20260430T12Z_MSC_GDPS_GeopotentialHeight_IsbL-0650_LatLon0.15_PT144H.grib2 2026-04-30 16:25 692K
20260430T12Z_MSC_GDPS_GeopotentialHeight_IsbL-0700_LatLon0.15_PT144H.grib2 2026-04-30 16:25 691K
20260430T12Z_MSC_GDPS_GeopotentialHeight_IsbL-0750_LatLon0.15_PT144H.grib2 2026-04-30 16:25 696K
20260430T12Z_MSC_GDPS_GeopotentialHeight_IsbL-0800_LatLon0.15_PT144H.grib2 2026-04-30 16:25 709K
20260430T12Z_MSC_GDPS_GeopotentialHeight_IsbL-0850_LatLon0.15_PT144H.grib2 2026-04-30 16:25 721K
20260430T12Z_MSC_GDPS_GeopotentialHeight_IsbL-0875_LatLon0.15_PT144H.grib2 2026-04-30 16:25 725K
20260430T12Z_MSC_GDPS_GeopotentialHeight_IsbL-0900_LatLon0.15_PT144H.grib2 2026-04-30 16:25 728K
20260430T12Z_MSC_GDPS_GeopotentialHeight_IsbL-0925_LatLon0.15_PT144H.grib2 2026-04-30 16:25 736K
20260430T12Z_MSC_GDPS_GeopotentialHeight_IsbL-0950_LatLon0.15_PT144H.grib2 2026-04-30 16:25 743K
20260430T12Z_MSC_GDPS_GeopotentialHeight_IsbL-0970_LatLon0.15_PT144H.grib2 2026-04-30 16:25 752K
20260430T12Z_MSC_GDPS_GeopotentialHeight_IsbL-0985_LatLon0.15_PT144H.grib2 2026-04-30 16:25 766K
20260430T12Z_MSC_GDPS_GeopotentialHeight_IsbL-1000_LatLon0.15_PT144H.grib2 2026-04-30 16:25 787K
20260430T12Z_MSC_GDPS_GeopotentialHeight_IsbL-1015_LatLon0.15_PT144H.grib2 2026-04-30 16:25 810K
20260430T12Z_MSC_GDPS_Humidex_Sfc_LatLon0.15_PT144H.grib2 2026-04-30 16:25 5.3M
20260430T12Z_MSC_GDPS_IcePellets-Accum12h_Sfc_LatLon0.15_PT144H.grib2 2026-04-30 16:25 35K
20260430T12Z_MSC_GDPS_IcePellets-Accum1h_Sfc_LatLon0.15_PT144H.grib2 2026-04-30 16:25 11K
20260430T12Z_MSC_GDPS_IcePellets-Accum24h_Sfc_LatLon0.15_PT144H.grib2 2026-04-30 16:25 60K
20260430T12Z_MSC_GDPS_IcePellets-Accum3h_Sfc_LatLon0.15_PT144H.grib2 2026-04-30 16:25 13K
20260430T12Z_MSC_GDPS_IcePellets-Accum6h_Sfc_LatLon0.15_PT144H.grib2 2026-04-30 16:25 19K
20260430T12Z_MSC_GDPS_IcePellets-Accum_Sfc_LatLon0.15_PT144H.grib2 2026-04-30 16:25 145K
20260430T12Z_MSC_GDPS_KIndex_Sfc_LatLon0.15_PT144H.grib2 2026-04-30 16:25 6.5M
20260430T12Z_MSC_GDPS_LatentHeatNetFlux_Sfc_LatLon0.15_PT144H.grib2 2026-04-30 16:25 561K
20260430T12Z_MSC_GDPS_LiftedIndex-MU-VT_IsbL-0500_LatLon0.15_PT144H.grib2 2026-04-30 16:25 5.4M
20260430T12Z_MSC_GDPS_NetLongwaveRadiationFlux-Accum_Sfc_LatLon0.15_PT144H.grib2 2026-04-30 16:25 1.1M
20260430T12Z_MSC_GDPS_NetShortwaveRadiationFlux-Accum_Sfc_LatLon0.15_PT144H.grib2 2026-04-30 16:25 1.0M
20260430T12Z_MSC_GDPS_O3MixingRatio_Sfc_LatLon0.15_PT144H.grib2 2026-04-30 16:45 2.2M
20260430T12Z_MSC_GDPS_O3_EAtm_LatLon0.15_PT144H.grib2 2026-04-30 16:45 2.4M
20260430T12Z_MSC_GDPS_PlanetaryBoundaryLayerHeight_Sfc_LatLon0.15_PT144H.grib2 2026-04-30 16:25 2.5M
20260430T12Z_MSC_GDPS_Precip-Accum12h_Sfc_LatLon0.15_PT144H.grib2 2026-04-30 16:25 4.0M
20260430T12Z_MSC_GDPS_Precip-Accum1h_Sfc_LatLon0.15_PT144H.grib2 2026-04-30 16:25 3.3M
20260430T12Z_MSC_GDPS_Precip-Accum24h_Sfc_LatLon0.15_PT144H.grib2 2026-04-30 16:25 4.6M
20260430T12Z_MSC_GDPS_Precip-Accum3h_Sfc_LatLon0.15_PT144H.grib2 2026-04-30 16:25 3.5M
20260430T12Z_MSC_GDPS_Precip-Accum6h_Sfc_LatLon0.15_PT144H.grib2 2026-04-30 16:25 3.8M
20260430T12Z_MSC_GDPS_Precip-Accum_Sfc_LatLon0.15_PT144H.grib2 2026-04-30 16:25 5.2M
20260430T12Z_MSC_GDPS_PrecipRate_Sfc_LatLon0.15_PT144H.grib2 2026-04-30 16:25 3.2M
20260430T12Z_MSC_GDPS_PrecipType-Instant_Sfc_LatLon0.15_PT144H.grib2 2026-04-30 16:25 1.6M
20260430T12Z_MSC_GDPS_Pressure_MSL_LatLon0.15_PT144H.grib2 2026-04-30 16:25 725K
20260430T12Z_MSC_GDPS_Pressure_PVU-1.5_LatLon0.15_PT144H.grib2 2026-04-30 16:25 5.8M
20260430T12Z_MSC_GDPS_Pressure_PVU-1_LatLon0.15_PT144H.grib2 2026-04-30 16:25 6.0M
20260430T12Z_MSC_GDPS_Pressure_PVU-2_LatLon0.15_PT144H.grib2 2026-04-30 16:25 5.6M
20260430T12Z_MSC_GDPS_Pressure_Sfc_LatLon0.15_PT144H.grib2 2026-04-30 16:25 1.1M
20260430T12Z_MSC_GDPS_RadiativeTemp_Sfc_LatLon0.15_PT144H.grib2 2026-04-30 16:25 502K
20260430T12Z_MSC_GDPS_Rain-Accum12h_Sfc_LatLon0.15_PT144H.grib2 2026-04-30 16:25 2.7M
20260430T12Z_MSC_GDPS_Rain-Accum1h_Sfc_LatLon0.15_PT144H.grib2 2026-04-30 16:25 1.7M
20260430T12Z_MSC_GDPS_Rain-Accum24h_Sfc_LatLon0.15_PT144H.grib2 2026-04-30 16:25 3.2M
20260430T12Z_MSC_GDPS_Rain-Accum3h_Sfc_LatLon0.15_PT144H.grib2 2026-04-30 16:25 1.9M
20260430T12Z_MSC_GDPS_Rain-Accum6h_Sfc_LatLon0.15_PT144H.grib2 2026-04-30 16:25 2.5M
20260430T12Z_MSC_GDPS_Rain-Accum_Sfc_LatLon0.15_PT144H.grib2 2026-04-30 16:25 4.1M
20260430T12Z_MSC_GDPS_RelativeHumidity_AGL-2m_LatLon0.15_PT144H.grib2 2026-04-30 16:25 1.1M
20260430T12Z_MSC_GDPS_RelativeHumidity_IsbL-0010_LatLon0.15_PT144H.grib2 2026-04-30 16:25 195K
20260430T12Z_MSC_GDPS_RelativeHumidity_IsbL-0020_LatLon0.15_PT144H.grib2 2026-04-30 16:25 161K
20260430T12Z_MSC_GDPS_RelativeHumidity_IsbL-0030_LatLon0.15_PT144H.grib2 2026-04-30 16:25 266K
20260430T12Z_MSC_GDPS_RelativeHumidity_IsbL-0050_LatLon0.15_PT144H.grib2 2026-04-30 16:25 334K
20260430T12Z_MSC_GDPS_RelativeHumidity_IsbL-0100_LatLon0.15_PT144H.grib2 2026-04-30 16:25 498K
20260430T12Z_MSC_GDPS_RelativeHumidity_IsbL-0150_LatLon0.15_PT144H.grib2 2026-04-30 16:25 663K
20260430T12Z_MSC_GDPS_RelativeHumidity_IsbL-0175_LatLon0.15_PT144H.grib2 2026-04-30 16:25 799K
20260430T12Z_MSC_GDPS_RelativeHumidity_IsbL-0200_LatLon0.15_PT144H.grib2 2026-04-30 16:25 715K
20260430T12Z_MSC_GDPS_RelativeHumidity_IsbL-0225_LatLon0.15_PT144H.grib2 2026-04-30 16:25 795K
20260430T12Z_MSC_GDPS_RelativeHumidity_IsbL-0250_LatLon0.15_PT144H.grib2 2026-04-30 16:25 866K
20260430T12Z_MSC_GDPS_RelativeHumidity_IsbL-0275_LatLon0.15_PT144H.grib2 2026-04-30 16:25 888K
20260430T12Z_MSC_GDPS_RelativeHumidity_IsbL-0300_LatLon0.15_PT144H.grib2 2026-04-30 16:25 930K
20260430T12Z_MSC_GDPS_RelativeHumidity_IsbL-0350_LatLon0.15_PT144H.grib2 2026-04-30 16:25 950K
20260430T12Z_MSC_GDPS_RelativeHumidity_IsbL-0400_LatLon0.15_PT144H.grib2 2026-04-30 16:25 1.0M
20260430T12Z_MSC_GDPS_RelativeHumidity_IsbL-0450_LatLon0.15_PT144H.grib2 2026-04-30 16:25 1.0M
20260430T12Z_MSC_GDPS_RelativeHumidity_IsbL-0500_LatLon0.15_PT144H.grib2 2026-04-30 16:25 1.0M
20260430T12Z_MSC_GDPS_RelativeHumidity_IsbL-0550_LatLon0.15_PT144H.grib2 2026-04-30 16:25 1.0M
20260430T12Z_MSC_GDPS_RelativeHumidity_IsbL-0600_LatLon0.15_PT144H.grib2 2026-04-30 16:25 1.0M
20260430T12Z_MSC_GDPS_RelativeHumidity_IsbL-0650_LatLon0.15_PT144H.grib2 2026-04-30 16:25 1.1M
20260430T12Z_MSC_GDPS_RelativeHumidity_IsbL-0700_LatLon0.15_PT144H.grib2 2026-04-30 16:25 1.1M
20260430T12Z_MSC_GDPS_RelativeHumidity_IsbL-0750_LatLon0.15_PT144H.grib2 2026-04-30 16:25 1.2M
20260430T12Z_MSC_GDPS_RelativeHumidity_IsbL-0800_LatLon0.15_PT144H.grib2 2026-04-30 16:25 1.2M
20260430T12Z_MSC_GDPS_RelativeHumidity_IsbL-0850_LatLon0.15_PT144H.grib2 2026-04-30 16:25 1.3M
20260430T12Z_MSC_GDPS_RelativeHumidity_IsbL-0875_LatLon0.15_PT144H.grib2 2026-04-30 16:25 1.3M
20260430T12Z_MSC_GDPS_RelativeHumidity_IsbL-0900_LatLon0.15_PT144H.grib2 2026-04-30 16:25 1.2M
20260430T12Z_MSC_GDPS_RelativeHumidity_IsbL-0925_LatLon0.15_PT144H.grib2 2026-04-30 16:25 1.2M
20260430T12Z_MSC_GDPS_RelativeHumidity_IsbL-0950_LatLon0.15_PT144H.grib2 2026-04-30 16:25 1.2M
20260430T12Z_MSC_GDPS_RelativeHumidity_IsbL-0970_LatLon0.15_PT144H.grib2 2026-04-30 16:25 1.2M
20260430T12Z_MSC_GDPS_RelativeHumidity_IsbL-0985_LatLon0.15_PT144H.grib2 2026-04-30 16:25 1.1M
20260430T12Z_MSC_GDPS_RelativeHumidity_IsbL-1000_LatLon0.15_PT144H.grib2 2026-04-30 16:25 1.1M
20260430T12Z_MSC_GDPS_RelativeHumidity_IsbL-1015_LatLon0.15_PT144H.grib2 2026-04-30 16:25 1.0M
20260430T12Z_MSC_GDPS_RelativeVorticity_IsbL-0200_LatLon0.15_PT144H.grib2 2026-04-30 16:25 1.2M
20260430T12Z_MSC_GDPS_RelativeVorticity_IsbL-0250_LatLon0.15_PT144H.grib2 2026-04-30 16:25 1.3M
20260430T12Z_MSC_GDPS_RelativeVorticity_IsbL-0500_LatLon0.15_PT144H.grib2 2026-04-30 16:25 1.5M
20260430T12Z_MSC_GDPS_RelativeVorticity_IsbL-0700_LatLon0.15_PT144H.grib2 2026-04-30 16:25 1.6M
20260430T12Z_MSC_GDPS_RelativeVorticity_IsbL-0850_LatLon0.15_PT144H.grib2 2026-04-30 16:25 1.6M
20260430T12Z_MSC_GDPS_Runoff-Accum_Sfc_LatLon0.15_PT144H.grib2 2026-04-30 16:25 155K
20260430T12Z_MSC_GDPS_SensibleHeatNetFlux_Sfc_LatLon0.15_PT144H.grib2 2026-04-30 16:25 492K
20260430T12Z_MSC_GDPS_ShowalterIndex_IsbL-0500_LatLon0.15_PT144H.grib2 2026-04-30 16:25 6.2M
20260430T12Z_MSC_GDPS_Snow-Accum12h_Sfc_LatLon0.15_PT144H.grib2 2026-04-30 16:25 1.5M
20260430T12Z_MSC_GDPS_Snow-Accum1h_Sfc_LatLon0.15_PT144H.grib2 2026-04-30 16:25 1.1M
20260430T12Z_MSC_GDPS_Snow-Accum24h_Sfc_LatLon0.15_PT144H.grib2 2026-04-30 16:25 1.6M
20260430T12Z_MSC_GDPS_Snow-Accum3h_Sfc_LatLon0.15_PT144H.grib2 2026-04-30 16:25 1.1M
20260430T12Z_MSC_GDPS_Snow-Accum6h_Sfc_LatLon0.15_PT144H.grib2 2026-04-30 16:25 1.4M
20260430T12Z_MSC_GDPS_Snow-Accum_Sfc_LatLon0.15_PT144H.grib2 2026-04-30 16:25 2.0M
20260430T12Z_MSC_GDPS_SnowDensity_Sfc_LatLon0.15_PT144H.grib2 2026-04-30 16:25 263K
20260430T12Z_MSC_GDPS_SnowDepth_Sfc_LatLon0.15_PT144H.grib2 2026-04-30 16:25 1.7M
20260430T12Z_MSC_GDPS_SoilTemp_DBS-0to10cm_LatLon0.15_PT144H.grib2 2026-04-30 16:25 514K
20260430T12Z_MSC_GDPS_SoilTemp_Sfc_LatLon0.15_PT144H.grib2 2026-04-30 16:25 576K
20260430T12Z_MSC_GDPS_SoilVolumetricIceContent_Sfc_LatLon0.15_PT144H.grib2 2026-04-30 16:25 190K
20260430T12Z_MSC_GDPS_SoilVolumetricWaterContent_DBS-0to10cm_LatLon0.15_PT144H.grib2 2026-04-30 16:25 593K
20260430T12Z_MSC_GDPS_SoilVolumetricWaterContent_DBS-0to1cm_LatLon0.15_PT144H.grib2 2026-04-30 16:25 647K
20260430T12Z_MSC_GDPS_SpecificHumidity_AGL-120m_LatLon0.15_PT144H.grib2 2026-04-30 16:25 1.1M
20260430T12Z_MSC_GDPS_SpecificHumidity_AGL-2m_LatLon0.15_PT144H.grib2 2026-04-30 16:25 1.2M
20260430T12Z_MSC_GDPS_SpecificHumidity_AGL-40m_LatLon0.15_PT144H.grib2 2026-04-30 16:25 1.1M
20260430T12Z_MSC_GDPS_SpecificHumidity_AGL-80m_LatLon0.15_PT144H.grib2 2026-04-30 16:25 1.1M
20260430T12Z_MSC_GDPS_SpecificHumidity_IsbL-0001_LatLon0.15_PT144H.grib2 2026-04-30 16:25 1.2M
20260430T12Z_MSC_GDPS_SpecificHumidity_IsbL-0005_LatLon0.15_PT144H.grib2 2026-04-30 16:25 1.1M
20260430T12Z_MSC_GDPS_SpecificHumidity_IsbL-0010_LatLon0.15_PT144H.grib2 2026-04-30 16:25 1.2M
20260430T12Z_MSC_GDPS_SpecificHumidity_IsbL-0020_LatLon0.15_PT144H.grib2 2026-04-30 16:25 1.3M
20260430T12Z_MSC_GDPS_SpecificHumidity_IsbL-0030_LatLon0.15_PT144H.grib2 2026-04-30 16:25 1.5M
20260430T12Z_MSC_GDPS_SpecificHumidity_IsbL-0050_LatLon0.15_PT144H.grib2 2026-04-30 16:25 1.6M
20260430T12Z_MSC_GDPS_SpecificHumidity_IsbL-0100_LatLon0.15_PT144H.grib2 2026-04-30 16:25 1.3M
20260430T12Z_MSC_GDPS_SpecificHumidity_IsbL-0150_LatLon0.15_PT144H.grib2 2026-04-30 16:25 1.3M
20260430T12Z_MSC_GDPS_SpecificHumidity_IsbL-0175_LatLon0.15_PT144H.grib2 2026-04-30 16:25 1.2M
20260430T12Z_MSC_GDPS_SpecificHumidity_IsbL-0200_LatLon0.15_PT144H.grib2 2026-04-30 16:25 1.3M
20260430T12Z_MSC_GDPS_SpecificHumidity_IsbL-0225_LatLon0.15_PT144H.grib2 2026-04-30 16:25 1.3M
20260430T12Z_MSC_GDPS_SpecificHumidity_IsbL-0250_LatLon0.15_PT144H.grib2 2026-04-30 16:25 1.4M
20260430T12Z_MSC_GDPS_SpecificHumidity_IsbL-0275_LatLon0.15_PT144H.grib2 2026-04-30 16:25 1.3M
20260430T12Z_MSC_GDPS_SpecificHumidity_IsbL-0300_LatLon0.15_PT144H.grib2 2026-04-30 16:25 1.2M
20260430T12Z_MSC_GDPS_SpecificHumidity_IsbL-0350_LatLon0.15_PT144H.grib2 2026-04-30 16:25 1.2M
20260430T12Z_MSC_GDPS_SpecificHumidity_IsbL-0400_LatLon0.15_PT144H.grib2 2026-04-30 16:25 1.5M
20260430T12Z_MSC_GDPS_SpecificHumidity_IsbL-0450_LatLon0.15_PT144H.grib2 2026-04-30 16:25 1.3M
20260430T12Z_MSC_GDPS_SpecificHumidity_IsbL-0500_LatLon0.15_PT144H.grib2 2026-04-30 16:25 1.4M
20260430T12Z_MSC_GDPS_SpecificHumidity_IsbL-0550_LatLon0.15_PT144H.grib2 2026-04-30 16:25 1.6M
20260430T12Z_MSC_GDPS_SpecificHumidity_IsbL-0600_LatLon0.15_PT144H.grib2 2026-04-30 16:25 1.7M
20260430T12Z_MSC_GDPS_SpecificHumidity_IsbL-0650_LatLon0.15_PT144H.grib2 2026-04-30 16:25 1.5M
20260430T12Z_MSC_GDPS_SpecificHumidity_IsbL-0700_LatLon0.15_PT144H.grib2 2026-04-30 16:25 1.6M
20260430T12Z_MSC_GDPS_SpecificHumidity_IsbL-0750_LatLon0.15_PT144H.grib2 2026-04-30 16:25 1.7M
20260430T12Z_MSC_GDPS_SpecificHumidity_IsbL-0800_LatLon0.15_PT144H.grib2 2026-04-30 16:25 1.8M
20260430T12Z_MSC_GDPS_SpecificHumidity_IsbL-0850_LatLon0.15_PT144H.grib2 2026-04-30 16:25 1.9M
20260430T12Z_MSC_GDPS_SpecificHumidity_IsbL-0875_LatLon0.15_PT144H.grib2 2026-04-30 16:25 1.9M
20260430T12Z_MSC_GDPS_SpecificHumidity_IsbL-0900_LatLon0.15_PT144H.grib2 2026-04-30 16:25 1.6M
20260430T12Z_MSC_GDPS_SpecificHumidity_IsbL-0925_LatLon0.15_PT144H.grib2 2026-04-30 16:25 1.6M
20260430T12Z_MSC_GDPS_SpecificHumidity_IsbL-0950_LatLon0.15_PT144H.grib2 2026-04-30 16:25 1.6M
20260430T12Z_MSC_GDPS_SpecificHumidity_IsbL-0970_LatLon0.15_PT144H.grib2 2026-04-30 16:25 1.5M
20260430T12Z_MSC_GDPS_SpecificHumidity_IsbL-0985_LatLon0.15_PT144H.grib2 2026-04-30 16:25 1.5M
20260430T12Z_MSC_GDPS_SpecificHumidity_IsbL-1000_LatLon0.15_PT144H.grib2 2026-04-30 16:25 1.5M
20260430T12Z_MSC_GDPS_SpecificHumidity_IsbL-1015_LatLon0.15_PT144H.grib2 2026-04-30 16:25 1.5M
20260430T12Z_MSC_GDPS_SpecificHumidity_Sfc_LatLon0.15_PT144H.grib2 2026-04-30 16:25 685K
20260430T12Z_MSC_GDPS_Thickness_IsbL-0850to0700_LatLon0.15_PT144H.grib2 2026-04-30 16:25 474K
20260430T12Z_MSC_GDPS_Thickness_IsbL-1000to0500_LatLon0.15_PT144H.grib2 2026-04-30 16:25 374K
20260430T12Z_MSC_GDPS_Thickness_IsbL-1000to0850_LatLon0.15_PT144H.grib2 2026-04-30 16:25 490K
20260430T12Z_MSC_GDPS_TotalCloudCover_Sfc_LatLon0.15_PT144H.grib2 2026-04-30 16:25 827K
20260430T12Z_MSC_GDPS_TotalTotalsIndex_Sfc_LatLon0.15_PT144H.grib2 2026-04-30 16:25 6.2M
20260430T12Z_MSC_GDPS_UVIndex-ClearSky_Sfc_LatLon0.15_PT144H.grib2 2026-04-30 16:45 1.0M
20260430T12Z_MSC_GDPS_UVIndex_Sfc_LatLon0.15_PT144H.grib2 2026-04-30 16:45 1.5M
20260430T12Z_MSC_GDPS_UpwardLongwaveRadiationFlux_NTAtm_LatLon0.15_PT144H.grib2 2026-04-30 16:25 841K
20260430T12Z_MSC_GDPS_VerticalVelocity_IsbL-0200_LatLon0.15_PT144H.grib2 2026-04-30 16:25 1.1M
20260430T12Z_MSC_GDPS_VerticalVelocity_IsbL-0250_LatLon0.15_PT144H.grib2 2026-04-30 16:25 1.0M
20260430T12Z_MSC_GDPS_VerticalVelocity_IsbL-0500_LatLon0.15_PT144H.grib2 2026-04-30 16:25 1.3M
20260430T12Z_MSC_GDPS_VerticalVelocity_IsbL-0600_LatLon0.15_PT144H.grib2 2026-04-30 16:25 1.4M
20260430T12Z_MSC_GDPS_VerticalVelocity_IsbL-0700_LatLon0.15_PT144H.grib2 2026-04-30 16:25 1.4M
20260430T12Z_MSC_GDPS_VerticalVelocity_IsbL-0850_LatLon0.15_PT144H.grib2 2026-04-30 16:25 1.6M
20260430T12Z_MSC_GDPS_WindChill_Sfc_LatLon0.15_PT144H.grib2 2026-04-30 16:25 5.3M
20260430T12Z_MSC_GDPS_WindDir_AGL-10m_LatLon0.15_PT144H.grib2 2026-04-30 16:25 1.3M
20260430T12Z_MSC_GDPS_WindDir_AGL-120m_LatLon0.15_PT144H.grib2 2026-04-30 16:25 1.3M
20260430T12Z_MSC_GDPS_WindDir_AGL-40m_LatLon0.15_PT144H.grib2 2026-04-30 16:25 1.4M
20260430T12Z_MSC_GDPS_WindDir_AGL-80m_LatLon0.15_PT144H.grib2 2026-04-30 16:25 1.3M
20260430T12Z_MSC_GDPS_WindDir_IsbL-0001_LatLon0.15_PT144H.grib2 2026-04-30 16:25 661K
20260430T12Z_MSC_GDPS_WindDir_IsbL-0005_LatLon0.15_PT144H.grib2 2026-04-30 16:25 813K
20260430T12Z_MSC_GDPS_WindDir_IsbL-0010_LatLon0.15_PT144H.grib2 2026-04-30 16:25 837K
20260430T12Z_MSC_GDPS_WindDir_IsbL-0020_LatLon0.15_PT144H.grib2 2026-04-30 16:25 943K
20260430T12Z_MSC_GDPS_WindDir_IsbL-0030_LatLon0.15_PT144H.grib2 2026-04-30 16:25 928K
20260430T12Z_MSC_GDPS_WindDir_IsbL-0050_LatLon0.15_PT144H.grib2 2026-04-30 16:25 952K
20260430T12Z_MSC_GDPS_WindDir_IsbL-0100_LatLon0.15_PT144H.grib2 2026-04-30 16:25 1.0M
20260430T12Z_MSC_GDPS_WindDir_IsbL-0150_LatLon0.15_PT144H.grib2 2026-04-30 16:25 1.0M
20260430T12Z_MSC_GDPS_WindDir_IsbL-0175_LatLon0.15_PT144H.grib2 2026-04-30 16:25 1.0M
20260430T12Z_MSC_GDPS_WindDir_IsbL-0200_LatLon0.15_PT144H.grib2 2026-04-30 16:25 1.1M
20260430T12Z_MSC_GDPS_WindDir_IsbL-0225_LatLon0.15_PT144H.grib2 2026-04-30 16:25 1.1M
20260430T12Z_MSC_GDPS_WindDir_IsbL-0250_LatLon0.15_PT144H.grib2 2026-04-30 16:25 1.1M
20260430T12Z_MSC_GDPS_WindDir_IsbL-0275_LatLon0.15_PT144H.grib2 2026-04-30 16:25 1.2M
20260430T12Z_MSC_GDPS_WindDir_IsbL-0300_LatLon0.15_PT144H.grib2 2026-04-30 16:25 1.2M
20260430T12Z_MSC_GDPS_WindDir_IsbL-0350_LatLon0.15_PT144H.grib2 2026-04-30 16:25 1.2M
20260430T12Z_MSC_GDPS_WindDir_IsbL-0400_LatLon0.15_PT144H.grib2 2026-04-30 16:25 1.3M
20260430T12Z_MSC_GDPS_WindDir_IsbL-0450_LatLon0.15_PT144H.grib2 2026-04-30 16:25 1.3M
20260430T12Z_MSC_GDPS_WindDir_IsbL-0500_LatLon0.15_PT144H.grib2 2026-04-30 16:25 1.4M
20260430T12Z_MSC_GDPS_WindDir_IsbL-0550_LatLon0.15_PT144H.grib2 2026-04-30 16:25 1.4M
20260430T12Z_MSC_GDPS_WindDir_IsbL-0600_LatLon0.15_PT144H.grib2 2026-04-30 16:25 1.4M
20260430T12Z_MSC_GDPS_WindDir_IsbL-0650_LatLon0.15_PT144H.grib2 2026-04-30 16:25 1.5M
20260430T12Z_MSC_GDPS_WindDir_IsbL-0700_LatLon0.15_PT144H.grib2 2026-04-30 16:25 1.6M
20260430T12Z_MSC_GDPS_WindDir_IsbL-0750_LatLon0.15_PT144H.grib2 2026-04-30 16:25 1.7M
20260430T12Z_MSC_GDPS_WindDir_IsbL-0800_LatLon0.15_PT144H.grib2 2026-04-30 16:25 1.8M
20260430T12Z_MSC_GDPS_WindDir_IsbL-0850_LatLon0.15_PT144H.grib2 2026-04-30 16:25 1.9M
20260430T12Z_MSC_GDPS_WindDir_IsbL-0875_LatLon0.15_PT144H.grib2 2026-04-30 16:25 1.9M
20260430T12Z_MSC_GDPS_WindDir_IsbL-0900_LatLon0.15_PT144H.grib2 2026-04-30 16:25 1.9M
20260430T12Z_MSC_GDPS_WindDir_IsbL-0925_LatLon0.15_PT144H.grib2 2026-04-30 16:25 2.0M
20260430T12Z_MSC_GDPS_WindDir_IsbL-0950_LatLon0.15_PT144H.grib2 2026-04-30 16:25 2.0M
20260430T12Z_MSC_GDPS_WindDir_IsbL-0970_LatLon0.15_PT144H.grib2 2026-04-30 16:25 2.0M
20260430T12Z_MSC_GDPS_WindDir_IsbL-0985_LatLon0.15_PT144H.grib2 2026-04-30 16:25 2.0M
20260430T12Z_MSC_GDPS_WindDir_IsbL-1000_LatLon0.15_PT144H.grib2 2026-04-30 16:25 2.0M
20260430T12Z_MSC_GDPS_WindDir_IsbL-1015_LatLon0.15_PT144H.grib2 2026-04-30 16:25 2.0M
20260430T12Z_MSC_GDPS_WindGust-Max_AGL-10m_LatLon0.15_PT144H.grib2 2026-04-30 16:25 2.2M
20260430T12Z_MSC_GDPS_WindGust-Min_AGL-10m_LatLon0.15_PT144H.grib2 2026-04-30 16:25 2.2M
20260430T12Z_MSC_GDPS_WindGust_AGL-10m_LatLon0.15_PT144H.grib2 2026-04-30 16:25 2.2M
20260430T12Z_MSC_GDPS_WindSpeed_AGL-10m_LatLon0.15_PT144H.grib2 2026-04-30 16:25 1.1M
20260430T12Z_MSC_GDPS_WindSpeed_AGL-120m_LatLon0.15_PT144H.grib2 2026-04-30 16:25 1.2M
20260430T12Z_MSC_GDPS_WindSpeed_AGL-40m_LatLon0.15_PT144H.grib2 2026-04-30 16:25 1.2M
20260430T12Z_MSC_GDPS_WindSpeed_AGL-80m_LatLon0.15_PT144H.grib2 2026-04-30 16:25 1.2M
20260430T12Z_MSC_GDPS_WindSpeed_IsbL-0001_LatLon0.15_PT144H.grib2 2026-04-30 16:25 494K
20260430T12Z_MSC_GDPS_WindSpeed_IsbL-0005_LatLon0.15_PT144H.grib2 2026-04-30 16:25 690K
20260430T12Z_MSC_GDPS_WindSpeed_IsbL-0010_LatLon0.15_PT144H.grib2 2026-04-30 16:25 625K
20260430T12Z_MSC_GDPS_WindSpeed_IsbL-0020_LatLon0.15_PT144H.grib2 2026-04-30 16:25 664K
20260430T12Z_MSC_GDPS_WindSpeed_IsbL-0030_LatLon0.15_PT144H.grib2 2026-04-30 16:25 860K
20260430T12Z_MSC_GDPS_WindSpeed_IsbL-0050_LatLon0.15_PT144H.grib2 2026-04-30 16:25 897K
20260430T12Z_MSC_GDPS_WindSpeed_IsbL-0100_LatLon0.15_PT144H.grib2 2026-04-30 16:25 867K
20260430T12Z_MSC_GDPS_WindSpeed_IsbL-0150_LatLon0.15_PT144H.grib2 2026-04-30 16:25 1.0M
20260430T12Z_MSC_GDPS_WindSpeed_IsbL-0175_LatLon0.15_PT144H.grib2 2026-04-30 16:25 1.0M
20260430T12Z_MSC_GDPS_WindSpeed_IsbL-0200_LatLon0.15_PT144H.grib2 2026-04-30 16:25 1.1M
20260430T12Z_MSC_GDPS_WindSpeed_IsbL-0225_LatLon0.15_PT144H.grib2 2026-04-30 16:25 1.1M
20260430T12Z_MSC_GDPS_WindSpeed_IsbL-0250_LatLon0.15_PT144H.grib2 2026-04-30 16:25 1.1M
20260430T12Z_MSC_GDPS_WindSpeed_IsbL-0275_LatLon0.15_PT144H.grib2 2026-04-30 16:25 1.1M
20260430T12Z_MSC_GDPS_WindSpeed_IsbL-0300_LatLon0.15_PT144H.grib2 2026-04-30 16:25 1.1M
20260430T12Z_MSC_GDPS_WindSpeed_IsbL-0350_LatLon0.15_PT144H.grib2 2026-04-30 16:25 1.1M
20260430T12Z_MSC_GDPS_WindSpeed_IsbL-0400_LatLon0.15_PT144H.grib2 2026-04-30 16:25 1.1M
20260430T12Z_MSC_GDPS_WindSpeed_IsbL-0450_LatLon0.15_PT144H.grib2 2026-04-30 16:25 1.1M
20260430T12Z_MSC_GDPS_WindSpeed_IsbL-0500_LatLon0.15_PT144H.grib2 2026-04-30 16:25 1.1M
20260430T12Z_MSC_GDPS_WindSpeed_IsbL-0550_LatLon0.15_PT144H.grib2 2026-04-30 16:25 1.1M
20260430T12Z_MSC_GDPS_WindSpeed_IsbL-0600_LatLon0.15_PT144H.grib2 2026-04-30 16:25 1.1M
20260430T12Z_MSC_GDPS_WindSpeed_IsbL-0650_LatLon0.15_PT144H.grib2 2026-04-30 16:25 1.4M
20260430T12Z_MSC_GDPS_WindSpeed_IsbL-0700_LatLon0.15_PT144H.grib2 2026-04-30 16:25 1.5M
20260430T12Z_MSC_GDPS_WindSpeed_IsbL-0750_LatLon0.15_PT144H.grib2 2026-04-30 16:25 1.6M
20260430T12Z_MSC_GDPS_WindSpeed_IsbL-0800_LatLon0.15_PT144H.grib2 2026-04-30 16:25 1.7M
20260430T12Z_MSC_GDPS_WindSpeed_IsbL-0850_LatLon0.15_PT144H.grib2 2026-04-30 16:25 1.7M
20260430T12Z_MSC_GDPS_WindSpeed_IsbL-0875_LatLon0.15_PT144H.grib2 2026-04-30 16:25 1.8M
20260430T12Z_MSC_GDPS_WindSpeed_IsbL-0900_LatLon0.15_PT144H.grib2 2026-04-30 16:25 1.8M
20260430T12Z_MSC_GDPS_WindSpeed_IsbL-0925_LatLon0.15_PT144H.grib2 2026-04-30 16:25 1.9M
20260430T12Z_MSC_GDPS_WindSpeed_IsbL-0950_LatLon0.15_PT144H.grib2 2026-04-30 16:25 1.9M
20260430T12Z_MSC_GDPS_WindSpeed_IsbL-0970_LatLon0.15_PT144H.grib2 2026-04-30 16:25 1.9M
20260430T12Z_MSC_GDPS_WindSpeed_IsbL-0985_LatLon0.15_PT144H.grib2 2026-04-30 16:25 1.8M
20260430T12Z_MSC_GDPS_WindSpeed_IsbL-1000_LatLon0.15_PT144H.grib2 2026-04-30 16:25 1.8M
20260430T12Z_MSC_GDPS_WindSpeed_IsbL-1015_LatLon0.15_PT144H.grib2 2026-04-30 16:25 1.8M
20260430T12Z_MSC_GDPS_WindU_AGL-10m_LatLon0.15_PT144H.grib2 2026-04-30 16:25 1.6M
20260430T12Z_MSC_GDPS_WindU_AGL-120m_LatLon0.15_PT144H.grib2 2026-04-30 16:25 964K
20260430T12Z_MSC_GDPS_WindU_AGL-40m_LatLon0.15_PT144H.grib2 2026-04-30 16:25 961K
20260430T12Z_MSC_GDPS_WindU_AGL-80m_LatLon0.15_PT144H.grib2 2026-04-30 16:25 965K
20260430T12Z_MSC_GDPS_WindU_IsbL-0001_LatLon0.15_PT144H.grib2 2026-04-30 16:25 499K
20260430T12Z_MSC_GDPS_WindU_IsbL-0005_LatLon0.15_PT144H.grib2 2026-04-30 16:25 687K
20260430T12Z_MSC_GDPS_WindU_IsbL-0010_LatLon0.15_PT144H.grib2 2026-04-30 16:25 699K
20260430T12Z_MSC_GDPS_WindU_IsbL-0020_LatLon0.15_PT144H.grib2 2026-04-30 16:25 731K
20260430T12Z_MSC_GDPS_WindU_IsbL-0030_LatLon0.15_PT144H.grib2 2026-04-30 16:25 736K
20260430T12Z_MSC_GDPS_WindU_IsbL-0050_LatLon0.15_PT144H.grib2 2026-04-30 16:25 762K
20260430T12Z_MSC_GDPS_WindU_IsbL-0100_LatLon0.15_PT144H.grib2 2026-04-30 16:25 924K
20260430T12Z_MSC_GDPS_WindU_IsbL-0150_LatLon0.15_PT144H.grib2 2026-04-30 16:25 1.0M
20260430T12Z_MSC_GDPS_WindU_IsbL-0175_LatLon0.15_PT144H.grib2 2026-04-30 16:25 1.0M
20260430T12Z_MSC_GDPS_WindU_IsbL-0200_LatLon0.15_PT144H.grib2 2026-04-30 16:25 1.1M
20260430T12Z_MSC_GDPS_WindU_IsbL-0225_LatLon0.15_PT144H.grib2 2026-04-30 16:25 854K
20260430T12Z_MSC_GDPS_WindU_IsbL-0250_LatLon0.15_PT144H.grib2 2026-04-30 16:25 854K
20260430T12Z_MSC_GDPS_WindU_IsbL-0275_LatLon0.15_PT144H.grib2 2026-04-30 16:25 881K
20260430T12Z_MSC_GDPS_WindU_IsbL-0300_LatLon0.15_PT144H.grib2 2026-04-30 16:25 871K
20260430T12Z_MSC_GDPS_WindU_IsbL-0350_LatLon0.15_PT144H.grib2 2026-04-30 16:25 887K
20260430T12Z_MSC_GDPS_WindU_IsbL-0400_LatLon0.15_PT144H.grib2 2026-04-30 16:25 892K
20260430T12Z_MSC_GDPS_WindU_IsbL-0450_LatLon0.15_PT144H.grib2 2026-04-30 16:25 895K
20260430T12Z_MSC_GDPS_WindU_IsbL-0500_LatLon0.15_PT144H.grib2 2026-04-30 16:25 1.1M
20260430T12Z_MSC_GDPS_WindU_IsbL-0550_LatLon0.15_PT144H.grib2 2026-04-30 16:25 1.1M
20260430T12Z_MSC_GDPS_WindU_IsbL-0600_LatLon0.15_PT144H.grib2 2026-04-30 16:25 1.2M
20260430T12Z_MSC_GDPS_WindU_IsbL-0650_LatLon0.15_PT144H.grib2 2026-04-30 16:25 1.2M
20260430T12Z_MSC_GDPS_WindU_IsbL-0700_LatLon0.15_PT144H.grib2 2026-04-30 16:25 1.2M
20260430T12Z_MSC_GDPS_WindU_IsbL-0750_LatLon0.15_PT144H.grib2 2026-04-30 16:25 1.3M
20260430T12Z_MSC_GDPS_WindU_IsbL-0800_LatLon0.15_PT144H.grib2 2026-04-30 16:25 1.4M
20260430T12Z_MSC_GDPS_WindU_IsbL-0850_LatLon0.15_PT144H.grib2 2026-04-30 16:25 1.4M
20260430T12Z_MSC_GDPS_WindU_IsbL-0875_LatLon0.15_PT144H.grib2 2026-04-30 16:25 1.5M
20260430T12Z_MSC_GDPS_WindU_IsbL-0900_LatLon0.15_PT144H.grib2 2026-04-30 16:25 1.5M
20260430T12Z_MSC_GDPS_WindU_IsbL-0925_LatLon0.15_PT144H.grib2 2026-04-30 16:25 1.5M
20260430T12Z_MSC_GDPS_WindU_IsbL-0950_LatLon0.15_PT144H.grib2 2026-04-30 16:25 1.4M
20260430T12Z_MSC_GDPS_WindU_IsbL-0970_LatLon0.15_PT144H.grib2 2026-04-30 16:25 1.4M
20260430T12Z_MSC_GDPS_WindU_IsbL-0985_LatLon0.15_PT144H.grib2 2026-04-30 16:25 1.4M
20260430T12Z_MSC_GDPS_WindU_IsbL-1000_LatLon0.15_PT144H.grib2 2026-04-30 16:25 1.4M
20260430T12Z_MSC_GDPS_WindU_IsbL-1015_LatLon0.15_PT144H.grib2 2026-04-30 16:25 1.3M
20260430T12Z_MSC_GDPS_WindV_AGL-10m_LatLon0.15_PT144H.grib2 2026-04-30 16:25 1.6M
20260430T12Z_MSC_GDPS_WindV_AGL-120m_LatLon0.15_PT144H.grib2 2026-04-30 16:25 965K
20260430T12Z_MSC_GDPS_WindV_AGL-40m_LatLon0.15_PT144H.grib2 2026-04-30 16:25 1.2M
20260430T12Z_MSC_GDPS_WindV_AGL-80m_LatLon0.15_PT144H.grib2 2026-04-30 16:25 966K
20260430T12Z_MSC_GDPS_WindV_IsbL-0001_LatLon0.15_PT144H.grib2 2026-04-30 16:25 775K
20260430T12Z_MSC_GDPS_WindV_IsbL-0005_LatLon0.15_PT144H.grib2 2026-04-30 16:25 852K
20260430T12Z_MSC_GDPS_WindV_IsbL-0010_LatLon0.15_PT144H.grib2 2026-04-30 16:25 881K
20260430T12Z_MSC_GDPS_WindV_IsbL-0020_LatLon0.15_PT144H.grib2 2026-04-30 16:25 931K
20260430T12Z_MSC_GDPS_WindV_IsbL-0030_LatLon0.15_PT144H.grib2 2026-04-30 16:25 932K
20260430T12Z_MSC_GDPS_WindV_IsbL-0050_LatLon0.15_PT144H.grib2 2026-04-30 16:25 1.0M
20260430T12Z_MSC_GDPS_WindV_IsbL-0100_LatLon0.15_PT144H.grib2 2026-04-30 16:25 1.1M
20260430T12Z_MSC_GDPS_WindV_IsbL-0150_LatLon0.15_PT144H.grib2 2026-04-30 16:25 1.0M
20260430T12Z_MSC_GDPS_WindV_IsbL-0175_LatLon0.15_PT144H.grib2 2026-04-30 16:25 1.0M
20260430T12Z_MSC_GDPS_WindV_IsbL-0200_LatLon0.15_PT144H.grib2 2026-04-30 16:25 839K
20260430T12Z_MSC_GDPS_WindV_IsbL-0225_LatLon0.15_PT144H.grib2 2026-04-30 16:25 849K
20260430T12Z_MSC_GDPS_WindV_IsbL-0250_LatLon0.15_PT144H.grib2 2026-04-30 16:25 909K
20260430T12Z_MSC_GDPS_WindV_IsbL-0275_LatLon0.15_PT144H.grib2 2026-04-30 16:25 934K
20260430T12Z_MSC_GDPS_WindV_IsbL-0300_LatLon0.15_PT144H.grib2 2026-04-30 16:25 865K
20260430T12Z_MSC_GDPS_WindV_IsbL-0350_LatLon0.15_PT144H.grib2 2026-04-30 16:25 878K
20260430T12Z_MSC_GDPS_WindV_IsbL-0400_LatLon0.15_PT144H.grib2 2026-04-30 16:25 880K
20260430T12Z_MSC_GDPS_WindV_IsbL-0450_LatLon0.15_PT144H.grib2 2026-04-30 16:25 881K
20260430T12Z_MSC_GDPS_WindV_IsbL-0500_LatLon0.15_PT144H.grib2 2026-04-30 16:25 1.1M
20260430T12Z_MSC_GDPS_WindV_IsbL-0550_LatLon0.15_PT144H.grib2 2026-04-30 16:25 1.1M
20260430T12Z_MSC_GDPS_WindV_IsbL-0600_LatLon0.15_PT144H.grib2 2026-04-30 16:25 1.1M
20260430T12Z_MSC_GDPS_WindV_IsbL-0650_LatLon0.15_PT144H.grib2 2026-04-30 16:25 1.2M
20260430T12Z_MSC_GDPS_WindV_IsbL-0700_LatLon0.15_PT144H.grib2 2026-04-30 16:25 1.2M
20260430T12Z_MSC_GDPS_WindV_IsbL-0750_LatLon0.15_PT144H.grib2 2026-04-30 16:25 1.3M
20260430T12Z_MSC_GDPS_WindV_IsbL-0800_LatLon0.15_PT144H.grib2 2026-04-30 16:25 1.3M
20260430T12Z_MSC_GDPS_WindV_IsbL-0850_LatLon0.15_PT144H.grib2 2026-04-30 16:25 1.4M
20260430T12Z_MSC_GDPS_WindV_IsbL-0875_LatLon0.15_PT144H.grib2 2026-04-30 16:25 1.4M
20260430T12Z_MSC_GDPS_WindV_IsbL-0900_LatLon0.15_PT144H.grib2 2026-04-30 16:25 1.5M
20260430T12Z_MSC_GDPS_WindV_IsbL-0925_LatLon0.15_PT144H.grib2 2026-04-30 16:25 1.4M
20260430T12Z_MSC_GDPS_WindV_IsbL-0950_LatLon0.15_PT144H.grib2 2026-04-30 16:25 1.4M
20260430T12Z_MSC_GDPS_WindV_IsbL-0970_LatLon0.15_PT144H.grib2 2026-04-30 16:25 1.4M
20260430T12Z_MSC_GDPS_WindV_IsbL-0985_LatLon0.15_PT144H.grib2 2026-04-30 16:25 1.4M
20260430T12Z_MSC_GDPS_WindV_IsbL-1000_LatLon0.15_PT144H.grib2 2026-04-30 16:25 1.7M
20260430T12Z_MSC_GDPS_WindV_IsbL-1015_LatLon0.15_PT144H.grib2 2026-04-30 16:25 1.6M